| time (UTC) | temp F | wind direction | speed knots | gust knots | rain 1hr in | rain 24hr in | rain mn in | humidity % | barometer mb |
| 20260902141526 | 72 | 124 | 1.7 | 4.3 | 0.00 | 0.04 | 0.04 | 75 | 1012.5 |
| 20260902140022 | 70 | 207 | 0.9 | 5.2 | 0.00 | 0.04 | 0.04 | 77 | 1012.6 |
| 20260902134518 | 69 | 74 | 0.9 | 7.0 | 0.00 | 0.04 | 0.04 | 80 | 1012.4 |
| 20260902133017 | 69 | 48 | 2.6 | 4.3 | 0.00 | 0.04 | 0.04 | 79 | 1012.4 |
| 20260902131515 | 69 | 26 | 2.6 | 5.2 | 0.00 | 0.04 | 0.04 | 79 | 1012.5 |
| 20260902130013 | 68 | 72 | 0.9 | 4.3 | 0.00 | 0.04 | 0.04 | 82 | 1012.2 |
| 20260902124511 | 67 | 24 | 0.0 | 3.5 | 0.00 | 0.04 | 0.04 | 85 | 1012.4 |
| 20260902123009 | 66 | 30 | 0.9 | 3.5 | 0.00 | 0.04 | 0.04 | 86 | 1012.4 |
| 20260902121506 | 66 | 32 | 1.7 | 3.5 | 0.00 | 0.04 | 0.04 | 87 | 1012.1 |
| 20260902120005 | 66 | 61 | 0.9 | 3.5 | 0.00 | 0.04 | 0.04 | 87 | 1012.4 |
| 20260902114502 | 65 | 130 | 0.0 | 1.7 | 0.00 | 0.04 | 0.04 | 87 | 1012.4 |
| 20260902113001 | 66 | 130 | 0.0 | 2.6 | 0.00 | 0.04 | 0.04 | 86 | 1012.3 |
| 20260902111500 | 66 | 136 | 1.7 | 7.0 | 0.00 | 0.04 | 0.04 | 86 | 1012.9 |
| 20260902110107 | 66 | 140 | 0.0 | 2.6 | 0.00 | 0.04 | 0.04 | 85 | 1013.0 |
| 20260902104558 | 66 | 155 | 0.9 | 1.7 | 0.00 | 0.04 | 0.04 | 84 | 1012.9 |
| 20260902103057 | 66 | 157 | 0.9 | 2.6 | 0.00 | 0.04 | 0.04 | 84 | 1013.1 |
| 20260902101557 | 66 | 157 | 0.0 | 4.3 | 0.00 | 0.04 | 0.04 | 84 | 1013.2 |
| 20260902100109 | 66 | 86 | 0.9 | 2.6 | 0.00 | 0.04 | 0.04 | 83 | 1013.0 |
| 20260902094612 | 66 | 85 | 0.9 | 2.6 | 0.00 | 0.04 | 0.04 | 82 | 1012.4 |
| 20260902093055 | 66 | 162 | 2.6 | 6.1 | 0.00 | 0.04 | 0.04 | 82 | 1012.0 |
| 20260902091600 | 66 | 163 | 5.2 | 8.7 | 0.00 | 0.04 | 0.04 | 83 | 1012.0 |
| 20260902090052 | 67 | 170 | 5.2 | 8.7 | 0.00 | 0.04 | 0.04 | 81 | 1011.5 |
| 20260902084551 | 67 | 65 | 4.3 | 9.6 | 0.00 | 0.04 | 0.04 | 79 | 1010.5 |
| 20260902083054 | 67 | 360 | 4.3 | 10.4 | 0.00 | 0.04 | 0.04 | 79 | 1010.7 |
| 20260902081546 | 67 | 65 | 2.6 | 7.0 | 0.01 | 0.04 | 0.04 | 82 | 1011.3 |
| 20260902080057 | 66 | 123 | 1.7 | 5.2 | 0.03 | 0.04 | 0.04 | 83 | 1012.0 |
| 20260902074543 | 66 | 105 | 0.9 | 6.1 | 0.04 | 0.04 | 0.04 | 80 | 1012.3 |
| 20260902073042 | 67 | 159 | 2.6 | 7.0 | 0.04 | 0.04 | 0.04 | 80 | 1011.7 |
| 20260902071538 | 68 | 86 | 2.6 | 7.0 | 0.03 | 0.03 | 0.03 | 80 | 1011.8 |
| 20260902070034 | 69 | 144 | 3.5 | 11.3 | 0.01 | 0.01 | 0.01 | 81 | 1012.9 |
| 20260902064532 | 71 | 195 | 7.0 | 13.0 | 0.00 | 0.00 | 0.00 | 79 | 1014.2 |
| 20260902063036 | 71 | 152 | 12.2 | 18.2 | 0.00 | 0.00 | 0.00 | 80 | 1014.8 |
| 20260902061542 | 73 | 28 | 0.9 | 2.6 | 0.00 | 0.00 | 0.00 | 70 | 1013.9 |
| 20260902060024 | 73 | 28 | 0.9 | 2.6 | 0.00 | 0.00 | 0.00 | 70 | 1012.9 |
| 20260902054523 | 72 | 28 | 1.7 | 3.5 | 0.00 | 0.00 | 0.00 | 73 | 1012.0 |
| 20260902053023 | 73 | 44 | 0.9 | 1.7 | 0.00 | 0.00 | 0.00 | 73 | 1012.3 |
| 20260902051517 | 73 | 111 | 0.9 | 1.7 | 0.00 | 0.00 | 0.00 | 71 | 1012.8 |
| 20260902050014 | 74 | 60 | 0.0 | 0.9 | 0.00 | 0.00 | 0.00 | 70 | 1013.5 |
| 20260902044513 | 74 | 60 | 0.9 | 1.7 | 0.00 | 0.00 | 0.00 | 67 | 1012.5 |
| 20260902043012 | 74 | 103 | 0.9 | 2.6 | 0.00 | 0.00 | 0.00 | 67 | 1012.4 |
| 20260902041512 | 75 | 129 | 0.0 | 2.6 | 0.00 | 0.00 | 0.00 | 66 | 1012.1 |
| 20260902040013 | 75 | 227 | 0.0 | 0.9 | 0.00 | 0.00 | 0.00 | 68 | 1012.3 |
| 20260902034512 | 76 | 227 | 0.0 | 1.7 | 0.00 | 0.00 | 0.00 | 68 | 1012.1 |
| 20260902033022 | 76 | 229 | 0.9 | 2.6 | 0.00 | 0.00 | 0.00 | 67 | 1012.7 |
| 20260902031509 | 76 | 294 | 0.0 | 0.9 | 0.00 | 0.00 | 0.00 | 67 | 1012.9 |
| 20260902030009 | 76 | 294 | 0.0 | 0.9 | 0.00 | 0.00 | 0.00 | 66 | 1012.9 |
| 20260902024509 | 76 | 294 | 0.0 | 0.9 | 0.00 | 0.00 | 0.00 | 66 | 1012.7 |
| 20260902023008 | 77 | 294 | 0.0 | 0.9 | 0.00 | 0.00 | 0.00 | 66 | 1012.7 |
| 20260902021521 | 77 | 294 | 0.0 | 0.0 | 0.00 | 0.00 | 0.00 | 67 | 1012.6 |
| 20260902020008 | 78 | 294 | 0.0 | 0.0 | 0.00 | 0.00 | 0.00 | 68 | 1012.7 |
| 20260902014507 | 78 | 294 | 0.0 | 0.9 | 0.00 | 0.00 | 0.00 | 67 | 1012.6 |
| 20260902013006 | 78 | 294 | 0.0 | 0.9 | 0.00 | 0.00 | 0.00 | 66 | 1012.5 |
| 20260902011505 | 79 | 294 | 0.0 | 0.9 | 0.00 | 0.00 | 0.00 | 67 | 1012.4 |
| 20260902010010 | 79 | 294 | 0.0 | 0.9 | 0.00 | 0.00 | 0.00 | 66 | 1012.2 |
| 20260902004515 | 80 | 294 | 0.0 | 0.9 | 0.00 | 0.00 | 0.00 | 65 | 1012.2 |
| 20260902003004 | 81 | 294 | 0.0 | 2.6 | 0.00 | 0.00 | 0.00 | 64 | 1012.2 |
| 20260902001503 | 81 | 294 | 0.0 | 3.5 | 0.00 | 0.00 | 0.00 | 62 | 1012.3 |
| 20260902000006 | 82 | 257 | 0.9 | 2.6 | 0.00 | 0.00 | 0.00 | 62 | 1012.5 |
| 20260901234502 | 82 | 255 | 0.9 | 1.7 | 0.00 | 0.00 | 0.00 | 61 | 1012.6 |
| 20260901233001 | 82 | 254 | 0.9 | 2.6 | 0.00 | 0.00 | 0.00 | 60 | 1012.6 |
| 20260901231501 | 83 | 254 | 0.0 | 0.9 | 0.00 | 0.00 | 0.00 | 58 | 1012.6 |
| 20260901230100 | 83 | 254 | 0.9 | 2.6 | 0.00 | 0.00 | 0.00 | 57 | 1012.6 |
| 20260901224601 | 83 | 286 | 0.0 | 2.6 | 0.00 | 0.00 | 0.00 | 56 | 1012.6 |
| 20260901223100 | 84 | 288 | 0.9 | 4.3 | 0.00 | 0.00 | 0.00 | 55 | 1012.6 |
| 20260901221559 | 85 | 217 | 0.9 | 3.5 | 0.00 | 0.00 | 0.00 | 52 | 1012.6 |
| 20260901214558 | 83 | 212 | 1.7 | 4.3 | 0.00 | 0.00 | 0.00 | 55 | 1012.5 |
| 20260901213058 | 83 | 159 | 2.6 | 6.1 | 0.00 | 0.00 | 0.00 | 55 | 1012.5 |
| 20260901211558 | 84 | 232 | 2.6 | 5.2 | 0.00 | 0.00 | 0.00 | 56 | 1012.5 |
| 20260901210056 | 83 | 173 | 1.7 | 4.3 | 0.00 | 0.00 | 0.00 | 56 | 1012.3 |
| 20260901204556 | 84 | 178 | 1.7 | 3.5 | 0.00 | 0.00 | 0.00 | 52 | 1012.4 |
| 20260901203055 | 86 | 175 | 2.6 | 6.1 | 0.00 | 0.00 | 0.00 | 48 | 1012.7 |
| 20260901201553 | 87 | 200 | 2.6 | 4.3 | 0.00 | 0.00 | 0.00 | 48 | 1012.9 |
| 20260901200106 | 88 | 166 | 2.6 | 5.2 | 0.00 | 0.00 | 0.00 | 45 | 1012.7 |
| 20260901194601 | 86 | 278 | 0.9 | 5.2 | 0.00 | 0.00 | 0.00 | 47 | 1012.9 |
| 20260901193101 | 86 | 244 | 0.0 | 4.3 | 0.00 | 0.00 | 0.00 | 47 | 1012.8 |
| 20260901191548 | 87 | 236 | 0.0 | 7.8 | 0.00 | 0.00 | 0.00 | 45 | 1013.1 |
| 20260901190053 | 88 | 261 | 0.9 | 5.2 | 0.00 | 0.00 | 0.00 | 46 | 1013.1 |
| 20260901184551 | 87 | 248 | 0.9 | 5.2 | 0.00 | 0.00 | 0.00 | 45 | 1013.1 |
| 20260901183043 | 86 | 196 | 0.9 | 4.3 | 0.00 | 0.00 | 0.00 | 45 | 1013.0 |
| 20260901181542 | 88 | 217 | 0.9 | 3.5 | 0.00 | 0.00 | 0.00 | 43 | 1013.2 |
| 20260901180036 | 86 | 266 | 0.9 | 4.3 | 0.00 | 0.00 | 0.00 | 47 | 1013.5 |
| 20260901174539 | 86 | 309 | 1.7 | 4.3 | 0.00 | 0.00 | 0.00 | 47 | 1013.7 |
| 20260901173034 | 85 | 266 | 1.7 | 5.2 | 0.00 | 0.00 | 0.00 | 50 | 1013.8 |
| 20260901171529 | 86 | 319 | 0.9 | 5.2 | 0.00 | 0.00 | 0.00 | 47 | 1013.9 |
| 20260901170025 | 86 | 5 | 1.7 | 3.5 | 0.00 | 0.00 | 0.00 | 51 | 1013.9 |
| 20260901164522 | 86 | 302 | 0.9 | 2.6 | 0.00 | 0.00 | 0.00 | 50 | 1014.0 |
| 20260901163019 | 84 | 231 | 0.9 | 4.3 | 0.00 | 0.00 | 0.00 | 55 | 1013.9 |
| 20260901161518 | 83 | 311 | 0.0 | 2.6 | 0.00 | 0.00 | 0.00 | 59 | 1014.0 |
| 20260901160014 | 81 | 312 | 1.7 | 4.3 | 0.00 | 0.00 | 0.00 | 62 | 1013.7 |
| 20260901154508 | 80 | 321 | 1.7 | 4.3 | 0.00 | 0.00 | 0.00 | 62 | 1013.9 |
| 20260901153006 | 78 | 258 | 0.0 | 2.6 | 0.00 | 0.00 | 0.00 | 65 | 1013.8 |
| 20260901151502 | 77 | 268 | 1.7 | 3.5 | 0.00 | 0.00 | 0.00 | 65 | 1014.0 |
| 20260901150100 | 76 | 229 | 0.0 | 2.6 | 0.00 | 0.00 | 0.00 | 67 | 1014.0 |
| 20260901144553 | 75 | 227 | 0.9 | 4.3 | 0.00 | 0.00 | 0.00 | 69 | 1014.2 |
| 20260901143107 | 74 | 192 | 0.9 | 3.5 | 0.00 | 0.00 | 0.00 | 73 | 1014.2 |